OBJECT M, 68427

Orbit data source: Space-Track

You're viewing an Uncataloged Satellite

Recently launched and/or uncataloged satellites may have evolving metadata. Metadata may include but not limited to: Owner, Maufacturer, Bus, Motor, and Mission.

OBJECT M, 68427 is a satellite in SSO that was launched on Mon, 30 Mar 2026 UTC via an FALCON 9 launch vehicle from the Air Force Western Test Range (AFWTR). Unknown objects in Earth's orbit typically refer to objects detected orbiting the Earth but have not yet been identified or cataloged. These objects could be anything from previously untracked satellites, spent rocket stages, debris from satellite collisions, or even natural meteoroids temporarily captured by Earth's gravity.

Loading next visibility...
Identifier
68427, 2026-067M
Orbit
SSO
Country
Flag of TBDTBD
Related business
None
Manufacturer
Unknown
Mission
Operational spacecraft
Bus & Motor
Unknown
Mass
Unknown
Launch date (UTC)
2026-03-30 (1 month ago)
Launch vehicle
FALCON 9
Launch site
Air Force Western Test Range (AFWTR)
Object type
Unknown
Shape & HBR
Unknown shape, 1.1 m
Radar Cross Section
RCS unknown

Expand to show TLE details & history
Last TLE update: 13 hours ago

TLE from 13 hours ago
0 OBJECT M
1 68427U 26067M   26127.13181889  .00007183  00000-0  34953-3 0  9991
2 68427  97.4528  86.2311 0003748 108.1436 252.0207 15.18683850  5716
Epoch: 2026-05-07T03:09Z
TLE epoch observation values (Epoch: 2026-05-07T03:09:49.152Z)
Latitude
0.00003°
Longitude
173.79394°
Altitude
513.702 km
Speed
7.606 km/s
True Right ascension
05h 44m 55s
True Declination
0° 00' 00"
Sunlit
Object was in daylight at epoch
Visualization orbit readout
Latitude
Unknown
Longitude
Unknown
Altitude
Unknown
Speed
Unknown
Apparent Right ascension
Unknown
Apparent Declination
Unknown
Sunlit
N/A
Visualization observer readout
Local Sidereal Time
00:08:06
Azimuth
Unknown
Elevation
Unknown
Doppler factor
Unknown
Orbital elements
Apogee altitude
509.367 km
Perigee altitude
504.206 km
Semi-major axis
6,884.924 km
Eccentricity
0.00037
Inclination
97.4528°
RAAN
86.2311°
Arg. of periapsis
108.1436°
True anomaly
251.97985°
Mean anomaly
252.0207°
Eccentric anomaly
252.00028°
Mean motion
3.79922 °/min
Orbital period
94.76 mins
BSTAR
0.00034953
Loading maneuver chart data...
Computing Atmospheric mass density...
Loading historical data...
Loading historical data...
Loading historical data...
Loading historical data...
Loading historical data...
Loading historical data...
Loading historical data...

Documentation

Showing up to 5 results
|